STARLINK-11456, 62064

Orbit data source: Space-Track

STARLINK-11456, 62064 is a payload satellite owned by SpaceX/Seattle (US) in LEO that was launched on Sun, 24 Nov 2024 UTC via an FALCON 9 launch vehicle from the Air Force Western Test Range (AFWTR). Payload-class satellites include a variety of spacecraft equipped with specific instruments for various scientific and technological missions. These include communications satellites like Starlink; space stations such as the ISS; scientific satellites like the Hubble; Earth observation satellites from companies like Planet Labs, Umbra, and HawkEye 360; GPS; miniature CubeSats for education and research; and military/defense satellites.

Loading next visibility...
Identifier
62064, 2024-217H
Orbit
LEO
Country
Flag of USUS
Related business
Manufacturer
SpaceX/Seattle
Mission
Operational Commercial Communications
Bus & Motor
STARLINK V2MD, Unknown motor
Mass
960 kg wet, ~910 kg dry
Launch date (UTC)
2024-11-24 (1 year ago)
Launch vehicle
FALCON 9
Launch site
Air Force Western Test Range (AFWTR)
Object type
Payload
Rocket body
Debris
Shape & HBR
Box + 2 Pan, 18.1 m
Radar Cross Section
36.964 m², Large (>1 m²)

Expand to show TLE details & history
Last TLE update: 9 hours ago

TLE from 9 hours ago
0 STARLINK-11456
1 62064U 24217H   26095.29115602  .00189093  00000-0  15275-2 0  9994
2 62064  53.1571 299.9685 0000167 319.2150  40.8855 15.69753107 79353
Epoch: 2026-04-05T06:59Z
TLE epoch observation values (Epoch: 2026-04-05T06:59:15.880Z)
Latitude
-0.00003°
Longitude
1.55362°
Altitude
360.433 km
Speed
7.694 km/s
True Right ascension
19h 59m 52s
True Declination
0° 00' 00"
Sunlit
Object was in daylight at epoch
Visualization orbit readout
Latitude
Unknown
Longitude
Unknown
Altitude
Unknown
Speed
Unknown
Apparent Right ascension
Unknown
Apparent Declination
Unknown
Sunlit
N/A
Visualization observer readout
Local Sidereal Time
21:56:24
Azimuth
Unknown
Elevation
Unknown
Doppler factor
Unknown
Orbital elements
Apogee altitude
359.977 km
Perigee altitude
359.752 km
Semi-major axis
6,738.002 km
Eccentricity
0.00002
Inclination
53.1571°
RAAN
299.9685°
Arg. of periapsis
319.215°
True anomaly
40.88675°
Mean anomaly
40.8855°
Eccentric anomaly
40.88613°
Mean motion
3.92416 °/min
Orbital period
91.74 mins
BSTAR
0.0015275
Loading maneuver chart data...
Computing Atmospheric mass density...
Loading historical data...
Loading historical data...
Loading historical data...
Loading historical data...
Loading historical data...
Loading historical data...
Loading historical data...

Documentation

Showing up to 5 results
|